Home > Weather > Luxembourg > Past weeks

Flag for Luxembourg Past Weather in Luxembourg, Luxembourg — Yesterday and Last 2 Weeks

Now
75 °F

Scattered clouds.


Feels Like: 77 °F
Forecast: 61 / 74 °F
Wind: 6 mph from Northwest

Location: Luxembourg Airport

Current Time: Jul 24, 2016 at 2:58:55 PM

Latest Report: Jul 24, 2016 at 2:20 PM


Visibility: N/A

Pressure: 30.12 "Hg

Humidity: 61%

Dew Point: 61 °F

Location of LuxembourgLocation

Past Weather in Luxembourg — Graph

°F

Luxembourg Temperature Yesterday

Maximum temperature yesterday: 75 °F (at 1:50 PM)
Minimum temperature yesterday: 61 °F (at 1:50 AM)
Average temperature yesterday: 66 °F

High & Low Weather Summary for the Past Weeks

 TemperatureHumidityPressure
High91 °F (Jul 20, 3:20 PM)100% (Jul 13, 7:20 AM)30.33 "Hg (Jul 13, 7:20 AM)
Low46 °F (Jul 15, 4:20 AM)26% (Jul 20, 3:50 PM)29.86 "Hg (Jul 10, 7:20 PM)
Average67 °F71%30.09 "Hg
* Reported Jul 9 1:20 PM — Jul 24 1:20 PM, Luxembourg, Weather by CustomWeather, © 2016

Note: Actual official high and low records may vary slightly from our data, if they occured in-between our weather recording intervals... More about our weather records

Advertising

Luxembourg Weather History for the Previous 24 Hours

Scroll right to see more
 ConditionsComfort  
Time TempWeatherWind HumidityBarometerVisibility
1:20 PM
Sun, Jul 24
75 °FBroken clouds.5 mph65%30.12 "HgN/A
12:50 PM73 °FBroken clouds.6 mph69%30.15 "HgN/A
12:20 PM72 °FBroken clouds.6 mph73%30.15 "HgN/A
11:50 AM72 °FBroken clouds.6 mph73%30.15 "HgN/A
11:20 AM73 °FScattered clouds.3 mph74%30.15 "Hg6 mi
10:50 AM70 °FPartly sunny.5 mph78%30.15 "Hg5 mi
10:20 AM70 °FPartly sunny.6 mph78%30.15 "Hg4 mi
9:50 AM68 °FFog.5 mph83%30.15 "Hg4 mi
9:20 AM66 °FFog.6 mph88%30.12 "Hg2 mi
8:50 AM66 °FFog.6 mph88%30.12 "Hg2 mi
8:20 AM66 °FFog.6 mph88%30.12 "Hg2 mi
7:50 AM64 °FFog.3 mph94%30.12 "Hg2 mi
7:20 AM64 °FFog.7 mph94%30.12 "Hg1 mi
6:50 AM64 °FFog.8 mph94%30.12 "Hg1 mi
6:20 AM64 °FFog.8 mph94%30.12 "Hg1 mi
5:50 AM64 °FFog.7 mph94%30.12 "Hg2 mi
5:20 AM63 °FFog.7 mph100%30.12 "Hg1 mi
4:50 AM64 °FFog.7 mph94%30.12 "Hg1 mi
4:20 AM64 °FFog.9 mph94%30.12 "Hg2 mi
3:50 AM64 °FFog.10 mph94%30.12 "Hg2 mi
3:20 AM64 °FFog.9 mph94%30.12 "Hg2 mi
2:50 AM64 °FFog.7 mph94%30.12 "Hg2 mi
2:20 AM64 °FFog.8 mph94%30.12 "Hg2 mi
1:50 AM64 °FFog.8 mph94%30.12 "Hg2 mi
1:20 AM64 °FFog.6 mph94%30.12 "Hg2 mi
12:50 AM64 °FFog.6 mph94%30.12 "Hg3 mi
12:20 AM64 °FClear.6 mph94%30.12 "Hg4 mi
11:50 PM
Sat, Jul 23
64 °FPassing clouds.6 mph94%30.12 "Hg5 mi
11:20 PM64 °FPassing clouds.7 mph94%30.12 "Hg5 mi
10:50 PM64 °FPassing clouds.5 mph94%30.12 "HgN/A
10:20 PM66 °FPassing clouds.5 mph88%30.12 "HgN/A
9:50 PM66 °FPassing clouds.3 mph94%30.12 "HgN/A
9:20 PM66 °FPassing clouds.3 mph94%30.09 "HgN/A
8:50 PM66 °FPassing clouds.3 mph94%30.09 "HgN/A
8:20 PM68 °FPassing clouds.3 mph88%30.09 "HgN/A
7:50 PM70 °FPassing clouds.3 mph83%30.09 "HgN/A
7:20 PM70 °FPassing clouds.3 mph88%30.09 "Hg5 mi
6:50 PM68 °FScattered clouds.3 mph94%30.09 "Hg4 mi
6:20 PM68 °FSprinkles. Scattered clouds.6 mph94%30.09 "HgN/A
5:50 PM70 °FSprinkles. Scattered clouds.6 mph83%30.09 "HgN/A
5:20 PM68 °FSprinkles. Scattered clouds.5 mph88%30.09 "HgN/A
4:50 PM68 °FScattered clouds.7 mph88%30.09 "HgN/A
4:20 PM70 °FScattered clouds.7 mph83%30.09 "HgN/A
3:50 PM68 °FScattered clouds.7 mph94%30.09 "HgN/A
3:20 PM66 °FLots of rain. Partly sunny.12 mph94%30.09 "Hg1 mi
2:50 PM75 °FScattered clouds.7 mph65%30.09 "HgN/A
2:20 PM75 °FScattered clouds.3 mph65%30.09 "HgN/A
Weather by CustomWeather, © 2016

See weather overviewHow to use our weather pages